����28�N�x�@��C��������Ԃɂ�鑪�茋��,,,,,,,,,,,,
,,,,,,,,,,,,
�P�@����n�_,,,,,,,,,,,,
���v��s�����i���v��s�����n���j,,,,,,,,,,,,
,,,,,,,,,,,,
�Q�@���Ԓl�i�m��l�j������28�N9��8���`����28�N9��30��,,,,,,,,,,,,
,,,,,,,,,,,,
,�N,��,��,��,SO2,SPM,Ox,CO,NO,NO2,���x,���x
,,,,,ppm,mg/m3,ppm,ppm,ppm,ppm,��,%
H01,2016,9,8,1,***,0.02,0.015,***,***,***,25.5,88.7
H01,2016,9,8,2,0.002,0.014,0.013,0.1,***,***,25.5,90.1
H01,2016,9,8,3,0.001,0.009,0.012,0.1,0.003,0.003,25.5,88.9
H01,2016,9,8,4,0.001,0.01,0.01,0.1,0.003,0.004,25.8,88.5
H01,2016,9,8,5,0.001,0.029,0.009,0.1,0.005,0.007,25.5,90.7
H01,2016,9,8,6,0.001,0.019,0.009,0.1,0.005,0.007,25.5,91.6
H01,2016,9,8,7,0.001,0.019,0.01,0.1,0.01,0.01,25.9,91.2
H01,2016,9,8,8,0.001,0.019,0.01,0.2,0.009,0.009,26.4,87
H01,2016,9,8,9,0.001,0.01,0.01,0.2,0.007,0.007,26.1,89.7
H01,2016,9,8,10,0.001,0.022,0.015,0.1,0.01,0.008,28.2,86
H01,2016,9,8,11,0.001,0.013,0.014,0.1,0.008,0.007,29.2,78.4
H01,2016,9,8,12,0.001,0.03,0.018,0.1,0.004,0.007,26.7,85.8
H01,2016,9,8,13,0.001,0.033,0.018,0.1,0.006,0.01,26,91
H01,2016,9,8,14,0.001,0.017,0.02,0.2,0.004,0.012,25.2,91
H01,2016,9,8,15,0.002,0.026,0.024,0.3,0.006,0.015,28.3,79.3
H01,2016,9,8,16,0.001,0,0.037,0.3,0.004,0.012,29.4,67.1
H01,2016,9,8,17,0.001,0.013,0.035,0.3,0.004,0.013,27.9,65.5
H01,2016,9,8,18,0.001,0.021,0.034,0.3,0.003,0.013,26.1,67.2
H01,2016,9,8,19,0.001,0.013,0.037,0.3,0.001,0.011,25.5,70.2
H01,2016,9,8,20,0.001,0.039,0.036,0.3,0.001,0.01,24.7,72.9
H01,2016,9,8,21,0.001,0.016,0.032,0.3,0,0.012,24.6,73
H01,2016,9,8,22,0.001,0.034,0.033,0.3,0,0.01,24.2,72.9
H01,2016,9,8,23,0.001,0.02,0.034,0.3,0,0.009,23.7,72.6
H01,2016,9,8,24,0.001,0.013,0.036,0.2,0,0.007,23.5,74.1
H01,2016,9,9,1,0.001,0.009,0.037,0.2,0,0.006,23.1,74
H01,2016,9,9,2,0.001,0.013,0.037,0.2,0,0.007,22.8,74.7
H01,2016,9,9,3,0.001,0.022,0.031,0.2,0.001,0.012,22.3,76.9
H01,2016,9,9,4,0.001,0.012,0.027,0.2,0.002,0.015,22,79.5
H01,2016,9,9,5,0.001,0.025,0.015,0.2,0.008,0.025,21.2,82.8
H01,2016,9,9,6,0.001,0.032,0.006,0.3,0.023,0.028,20.8,86.5
H01,2016,9,9,7,0.001,0.036,0.014,0.3,0.011,0.025,23.8,70.7
H01,2016,9,9,8,0.001,0.031,0.027,0.3,0.009,0.022,26.3,59.9
H01,2016,9,9,9,0.001,0.012,0.036,0.3,0.005,0.016,26.7,55.9
H01,2016,9,9,10,0.001,0.017,0.04,0.2,0.005,0.016,28.5,52.9
H01,2016,9,9,11,0.001,0.014,0.043,0.2,0.005,0.014,30,48.6
H01,2016,9,9,12,0.001,0.025,0.044,0.2,0.003,0.012,29.4,45.6
H01,2016,9,9,13,0.001,0.019,0.043,0.2,0.003,0.01,30.8,45.3
H01,2016,9,9,14,0.001,0.018,0.048,0.2,0.002,0.008,31.1,41
H01,2016,9,9,15,0.001,0.024,0.046,0.3,0.003,0.011,31.5,41.2
H01,2016,9,9,16,0.001,0.017,0.045,0.3,0.003,0.01,30,46.9
H01,2016,9,9,17,0.001,0.021,0.039,0.2,0.003,0.01,28.4,50.6
H01,2016,9,9,18,0.001,0.018,0.035,0.3,0.003,0.01,26.9,51.5
H01,2016,9,9,19,0.001,0.026,0.035,0.3,0.002,0.01,25.9,54.6
H01,2016,9,9,20,0.001,0.027,0.033,0.2,0.001,0.009,25,58.7
H01,2016,9,9,21,0.001,0.016,0.031,0.2,0,0.01,24.2,61.9
H01,2016,9,9,22,0.001,0.024,0.028,0.2,0,0.011,23.5,64.1
H01,2016,9,9,23,0.001,0.026,0.028,0.2,0,0.008,22.7,68.4
H01,2016,9,9,24,0.001,0.012,0.024,0.2,0.001,0.011,22,71.2
H01,2016,9,10,1,0.001,0.018,0.02,0.3,0.001,0.012,21,74.1
H01,2016,9,10,2,0.001,0.013,0.012,0.3,0.002,0.015,20.1,78.9
H01,2016,9,10,3,0.001,0.019,0.012,0.3,0.004,0.017,20.1,78.5
H01,2016,9,10,4,0.001,0.023,0.011,0.2,0.002,0.016,19.7,79.3
H01,2016,9,10,5,0.001,0.024,0.003,0.3,0.013,0.019,18.9,84
H01,2016,9,10,6,0.001,0.023,0.001,0.3,0.02,0.018,19.1,84.8
H01,2016,9,10,7,0.002,0.021,0.006,0.3,0.016,0.017,21.9,68.6
H01,2016,9,10,8,0.001,0.023,0.012,0.3,0.01,0.014,24.8,57.1
H01,2016,9,10,9,0.001,0.016,0.018,0.3,0.009,0.011,27,53.3
H01,2016,9,10,10,0.001,0.011,0.025,0.2,0.006,0.01,28.2,49
H01,2016,9,10,11,0.001,0.017,0.037,0.2,0.002,0.008,29.3,48.4
H01,2016,9,10,12,0.001,0.035,0.054,0.2,0.001,0.006,30,49
H01,2016,9,10,13,0.001,0.022,0.064,0.3,0.001,0.007,31.1,43.8
H01,2016,9,10,14,0.001,0.023,0.071,0.2,0,0.007,31.8,39.7
H01,2016,9,10,15,0.001,0.014,0.077,0.3,0,0.008,31.8,38.5
H01,2016,9,10,16,0.003,0.035,0.08,0.4,0.001,0.011,30.6,46.9
H01,2016,9,10,17,0.004,0.042,0.081,0.4,0.001,0.013,29,53.9
H01,2016,9,10,18,0.002,0.042,0.071,0.4,0,0.011,27.6,62.9
H01,2016,9,10,19,0.001,0.05,0.063,0.3,0,0.01,26.1,71.3
H01,2016,9,10,20,0.001,0.043,0.06,0.3,0,0.009,25.1,78.1
H01,2016,9,10,21,0.001,0.039,0.046,0.3,0,0.013,24.4,82
H01,2016,9,10,22,0.001,0.049,0.028,0.4,0.001,0.015,24,83.8
H01,2016,9,10,23,0.001,0.042,0.035,0.4,0,0.009,23.8,83.7
H01,2016,9,10,24,0.001,0.038,0.024,0.4,0.001,0.013,23.6,85.4
H01,2016,9,11,1,0.001,0.04,0.025,0.4,0,0.011,22.9,84.8
H01,2016,9,11,2,0.001,0.042,0.02,0.3,0,0.008,22.4,86.4
H01,2016,9,11,3,0,0.034,0.011,0.3,0.001,0.009,22.1,88.8
H01,2016,9,11,4,0,0.035,0.011,0.3,0.001,0.009,22.3,88.7
H01,2016,9,11,5,0,0.03,0.006,0.3,0.001,0.01,22.1,88
H01,2016,9,11,6,0,0.037,0.003,0.3,0.006,0.012,22.2,88.5
H01,2016,9,11,7,0,0.091,0.011,0.5,0.005,0.013,23.3,81.2
H01,2016,9,11,8,0.001,0.05,0.02,0.4,0.002,0.007,25.1,73.5
H01,2016,9,11,9,0.001,0.031,0.028,0.4,0.001,0.008,26,66
H01,2016,9,11,10,0.002,0.044,0.043,0.3,0.001,0.007,27.7,58.3
H01,2016,9,11,11,0.001,0.037,0.056,0.3,0,0.005,28.3,56.6
H01,2016,9,11,12,0.001,0.038,0.063,0.3,0,0.004,29.9,51.2
H01,2016,9,11,13,0.001,0.034,0.062,0.3,0,0.004,31.5,49.9
H01,2016,9,11,14,0.001,0.033,0.066,0.3,0,0.004,31.1,49.6
H01,2016,9,11,15,0.002,0.049,0.072,0.4,0,0.007,29.4,57.5
H01,2016,9,11,16,0.006,0.044,0.063,0.7,0,0.014,29.3,60.9
H01,2016,9,11,17,0.005,0.058,0.063,0.6,0,0.014,28.4,62.7
H01,2016,9,11,18,0.006,0.04,0.056,0.6,0,0.017,27.5,67.8
H01,2016,9,11,19,0.003,0.044,0.05,0.4,0,0.012,26.2,74.9
H01,2016,9,11,20,0.001,0.032,0.047,0.3,0,0.009,25.5,78.8
H01,2016,9,11,21,0.001,0.032,0.04,0.3,0,0.01,25.1,82
H01,2016,9,11,22,0.001,0.04,0.036,0.3,0,0.009,24.4,84.4
H01,2016,9,11,23,0,0.022,0.033,0.3,0,0.01,24.2,86.2
H01,2016,9,11,24,0.001,0.035,0.034,0.2,0,0.007,24.3,86.4
H01,2016,9,12,1,0.001,0.019,0.026,0.2,0,0.009,24.2,86.1
H01,2016,9,12,2,0,0.03,0.023,0.2,0,0.008,23.8,87.8
H01,2016,9,12,3,0,0.019,0.014,0.2,0.002,0.009,23.3,89.5
H01,2016,9,12,4,0.001,0.025,0.014,0.2,0.003,0.013,23.7,89.1
H01,2016,9,12,5,0.001,0.011,0.007,0.2,0.005,0.014,23.3,88.8
H01,2016,9,12,6,0,0.021,0.003,0.3,0.017,0.02,23.3,88.9
H01,2016,9,12,7,0,0.022,0.006,0.3,0.019,0.022,24.6,86.2
H01,2016,9,12,8,0.001,0.026,0.028,0.3,0.003,0.012,26.8,73.5
H01,2016,9,12,9,0.001,0.03,0.042,0.3,0.002,0.008,27.3,62.1
H01,2016,9,12,10,0.001,0.025,0.048,0.3,0.001,0.008,28.3,59.9
H01,2016,9,12,11,0.001,0.035,0.057,0.3,0.001,0.008,29,58.5
H01,2016,9,12,12,0.001,0.039,0.053,0.3,0.002,0.013,29,60.4
H01,2016,9,12,13,0.001,0.035,0.054,0.3,0.002,0.012,28.9,60.1
H01,2016,9,12,14,0.001,0.032,0.053,0.3,0.001,0.01,28.5,61.9
H01,2016,9,12,15,0.001,0.028,0.055,0.3,0.001,0.009,28.6,61.4
H01,2016,9,12,16,0.001,0.029,0.056,0.3,0.002,0.014,28.5,63.1
H01,2016,9,12,17,0.001,0.036,0.056,0.3,0.002,0.013,27.8,65.9
H01,2016,9,12,18,0.001,0.041,0.052,0.3,0.001,0.013,26.8,69.7
H01,2016,9,12,19,0.001,0.043,0.048,0.3,0.001,0.011,25.9,73.6
H01,2016,9,12,20,0.001,0.026,0.051,0.3,0,0.01,25.5,74.9
H01,2016,9,12,21,0.001,0.037,0.052,0.3,0,0.01,25.5,76.4
H01,2016,9,12,22,0.001,0.039,0.05,0.3,0,0.009,25.5,75.9
H01,2016,9,12,23,0.001,0.033,0.042,0.3,0,0.01,25.5,75.4
H01,2016,9,12,24,0.001,0.031,0.038,0.3,0,0.01,24.5,78.2
H01,2016,9,13,1,0,0.025,0.034,0.2,0,0.007,23.4,88.5
H01,2016,9,13,2,0,0.03,0.031,0.2,0,0.005,23.2,90.1
H01,2016,9,13,3,0,0.029,0.028,0.2,0.002,0.009,23.1,91.2
H01,2016,9,13,4,0,0.015,0.022,0.2,0.004,0.011,23.2,91.5
H01,2016,9,13,5,0,0.025,0.014,0.2,0.006,0.014,23.5,92
H01,2016,9,13,6,0,0.016,0.015,0.2,0.003,0.015,23.3,92.3
H01,2016,9,13,7,0,0.031,0.01,0.3,0.007,0.02,23.6,92.8
H01,2016,9,13,8,0,0.036,0.005,0.3,0.018,0.02,24.6,93.1
H01,2016,9,13,9,0,0.015,0.007,0.4,0.015,0.019,25.1,92.4
H01,2016,9,13,10,0,0.022,0.005,0.4,0.016,0.022,24.2,90.1
H01,2016,9,13,11,0.001,0.023,0.007,0.3,0.015,0.02,24.9,90.3
H01,2016,9,13,12,0,0.021,0.013,0.3,0.008,0.014,26.3,84.6
H01,2016,9,13,13,0,0.025,0.013,0.3,0.008,0.017,25.5,88.7
H01,2016,9,13,14,0.001,0.029,0.016,0.4,0.01,0.021,25.9,88.1
H01,2016,9,13,15,0.001,0.019,0.014,0.4,0.007,0.022,26,88.3
H01,2016,9,13,16,0.001,0.025,0.02,0.3,0.006,0.017,26.7,83.5
H01,2016,9,13,17,0.001,0.025,0.011,0.3,0.01,0.021,26.4,86.7
H01,2016,9,13,18,0,0.022,0.004,0.5,0.021,0.024,25.9,88.8
H01,2016,9,13,19,0,0.029,0.001,0.5,0.017,0.023,25.5,90.7
H01,2016,9,13,20,0,0.03,0,0.4,0.019,0.018,25.2,91.4
H01,2016,9,13,21,0.001,0.033,0.001,0.7,0.014,0.019,24.7,91.6
H01,2016,9,13,22,0.001,0.038,0,0.7,0.021,0.018,24.9,92.5
H01,2016,9,13,23,0,0.032,0.001,0.7,0.015,0.016,24.4,92.3
H01,2016,9,13,24,0,0.02,0.005,0.4,0.002,0.014,24.2,91.9
H01,2016,9,14,1,0,0.014,0.007,0.3,0.002,0.014,24.4,91.1
H01,2016,9,14,2,0.001,0.018,0.01,0.3,0.003,0.014,24.2,88.1
H01,2016,9,14,3,0.001,0.019,0.004,0.3,0.009,0.016,24.2,88.3
H01,2016,9,14,4,0,0.036,0.003,0.3,0.008,0.016,24,88.6
H01,2016,9,14,5,0.001,0.021,0.003,0.3,0.013,0.018,24.2,86.9
H01,2016,9,14,6,0.001,0.021,0.005,0.2,0.011,0.019,23.9,83.4
H01,2016,9,14,7,0.001,0.02,0.004,0.3,0.018,0.02,24.6,81.6
H01,2016,9,14,8,0.001,0.019,0.007,0.3,0.019,0.018,25.5,74.9
H01,2016,9,14,9,0.001,0.009,0.009,0.3,0.017,0.019,26.7,70.1
H01,2016,9,14,10,0.001,0.026,0.017,0.3,0.01,0.013,28.4,63.5
H01,2016,9,14,11,0.001,0.009,0.025,0.2,0.005,0.01,29,60.6
H01,2016,9,14,12,0.001,0.017,0.033,0.3,0.003,0.011,30,51.3
H01,2016,9,14,13,0.001,0.021,0.044,0.2,0.002,0.01,30.3,50.4
H01,2016,9,14,14,0.001,0.019,0.049,0.2,0.001,0.01,29.9,50
H01,2016,9,14,15,0.001,0.027,0.042,0.2,0.001,0.01,28.8,55
H01,2016,9,14,16,0.001,0.012,0.033,0.2,0.002,0.016,28.2,55.2
H01,2016,9,14,17,0,0.025,0.029,0.2,0.003,0.019,27.4,57.3
H01,2016,9,14,18,0,0.021,0.015,0.4,0.006,0.032,25.9,66
H01,2016,9,14,19,0,0.013,0.006,0.4,0.007,0.031,25.6,72.6
H01,2016,9,14,20,0,0.017,0.002,0.5,0.013,0.03,25.1,75.5
H01,2016,9,14,21,0,0.019,0.005,0.5,0.008,0.026,25.5,74.6
H01,2016,9,14,22,0,0.021,0.007,0.3,0.002,0.018,25,75.7
H01,2016,9,14,23,0,0.019,0.004,0.3,0.005,0.02,24.2,80.3
H01,2016,9,14,24,0.001,0.028,0.005,0.4,0.003,0.017,24.2,82
H01,2016,9,15,1,***,0.025,0.003,***,***,***,23.9,83.4
H01,2016,9,15,2,0.001,0.032,0.006,0.4,***,***,23.8,84.1
H01,2016,9,15,3,0.001,0.026,0.007,0.4,0.005,0.016,24,77.2
H01,2016,9,15,4,0.001,0.029,0.011,0.3,0.005,0.017,23.4,77.9
H01,2016,9,15,5,0.001,0.025,0.008,0.3,0.006,0.02,23.4,78.5
H01,2016,9,15,6,0.001,0.026,0.009,0.3,0.005,0.021,23.3,76.9
H01,2016,9,15,7,0.001,0.022,0.006,0.3,0.021,0.024,23.8,75.5
H01,2016,9,15,8,0.001,0.011,0.012,0.3,0.012,0.018,26.1,64.8
H01,2016,9,15,9,0.001,0.03,0.017,0.3,0.011,0.017,27.8,57.8
H01,2016,9,15,10,0.001,0.012,0.022,0.3,0.008,0.015,27.7,57.1
H01,2016,9,15,11,0.001,0.022,0.025,0.3,0.008,0.018,27.5,53.4
H01,2016,9,15,12,0.001,0.03,0.033,0.3,0.006,0.015,28,54.8
H01,2016,9,15,13,0.001,0.018,0.037,0.3,0.005,0.016,28.1,52.5
H01,2016,9,15,14,0.001,0.032,0.035,0.3,0.005,0.018,27.8,55.1
H01,2016,9,15,15,0.001,0.026,0.031,0.3,0.006,0.021,27.7,57.3
H01,2016,9,15,16,0.001,0.04,0.024,0.3,0.01,0.028,27.4,58.9
H01,2016,9,15,17,0.001,0.027,0.02,0.3,0.009,0.026,26.7,60.1
H01,2016,9,15,18,0.001,0.019,0.012,0.4,0.012,0.033,25.2,67.3
H01,2016,9,15,19,0.001,0.023,0.003,0.6,0.014,0.033,24.4,75.2
H01,2016,9,15,20,0.001,0.029,0.002,0.5,0.013,0.028,23.3,80.5
H01,2016,9,15,21,0.001,0.03,0.004,0.5,0.005,0.022,23,81.7
H01,2016,9,15,22,0.001,0.028,0.004,0.4,0.006,0.021,22.4,82.8
H01,2016,9,15,23,0.001,0.028,0.001,0.4,0.008,0.022,22.7,87
H01,2016,9,15,24,0,0.027,0.002,0.4,0.007,0.019,22.9,83.1
H01,2016,9,16,1,0,0.027,0.001,0.4,0.01,0.017,22.2,86.5
H01,2016,9,16,2,0,0.032,0.007,0.3,0.001,0.011,22.7,84.3
H01,2016,9,16,3,0,0.026,0.011,0.3,0.002,0.013,23,84.1
H01,2016,9,16,4,0.001,0.038,0.011,0.3,0.002,0.013,23.1,82.2
H01,2016,9,16,5,0.001,0.036,0.005,0.3,0.007,0.017,23,84.6
H01,2016,9,16,6,0,0.038,0.003,0.3,0.011,0.019,22.4,88.9
H01,2016,9,16,7,0.001,0.03,0.004,0.4,0.01,0.016,22.5,90
H01,2016,9,16,8,0.001,0.037,0.005,0.4,0.015,0.017,23.9,88.5
H01,2016,9,16,9,0.001,0.038,0.006,0.4,0.018,0.017,24.6,83.9
H01,2016,9,16,10,0.001,0.045,0.015,0.4,0.011,0.018,25.6,73.5
H01,2016,9,16,11,0.001,0.032,0.028,0.3,0.006,0.013,26.3,65.7
H01,2016,9,16,12,0.001,0.029,0.034,0.3,0.004,0.015,27,65.6
H01,2016,9,16,13,0.001,0.028,0.048,0.4,0.003,0.014,27.6,59.4
H01,2016,9,16,14,0.001,0.019,0.056,0.3,0.001,0.011,28.5,58.4
H01,2016,9,16,15,0.001,0.045,0.061,0.3,0.002,0.015,29.3,59
H01,2016,9,16,16,0.001,0.033,0.057,0.3,0.002,0.015,28.2,61.1
H01,2016,9,16,17,0.001,0.044,0.046,0.4,0.004,0.029,26.1,72.8
H01,2016,9,16,18,0.001,0.058,0.038,0.4,0.006,0.03,24.4,88.6
H01,2016,9,16,19,0,0.054,0.039,0.4,0.002,0.022,24.2,89.5
H01,2016,9,16,20,0,0.046,0.031,0.4,0.002,0.02,24.1,90.5
H01,2016,9,16,21,0,0.044,0.024,0.4,0.001,0.018,23.9,91
H01,2016,9,16,22,0,0.043,0.016,0.4,0.003,0.02,23.7,91.6
H01,2016,9,16,23,0,0.046,0.017,0.4,0.003,0.02,23.5,91.6
H01,2016,9,16,24,0,0.054,0.017,0.4,0.001,0.013,23.4,91.7
H01,2016,9,17,1,0,0.056,0.014,0.4,0.001,0.012,23.1,91.9
H01,2016,9,17,2,0,0.039,0.012,0.3,0.002,0.012,22.9,92
H01,2016,9,17,3,0,0.035,0.011,0.3,0.001,0.01,22.8,92
H01,2016,9,17,4,0,0.038,0.007,0.3,0.009,0.013,22.6,92.1
H01,2016,9,17,5,0,0.027,0.003,0.3,0.004,0.016,22.7,92.2
H01,2016,9,17,6,0,0.031,0.004,0.3,0.007,0.015,22.8,92.1
H01,2016,9,17,7,0,0.037,0.004,0.3,0.015,0.018,23.3,92.2
H01,2016,9,17,8,0,0.053,0.011,0.3,0.009,0.017,24.3,88.3
H01,2016,9,17,9,0.001,0.042,0.026,0.3,0.004,0.012,26,76.9
H01,2016,9,17,10,0.001,0.035,0.034,0.3,0.003,0.013,27.5,63.8
H01,2016,9,17,11,0.001,0.04,0.043,0.3,0.002,0.012,28.4,60.7
H01,2016,9,17,12,0.001,0.046,0.051,0.4,0.002,0.012,28.6,58.3
H01,2016,9,17,13,0.001,0.047,0.062,0.4,0.001,0.011,29.1,57.4
H01,2016,9,17,14,0.001,0.044,0.063,0.4,0.001,0.015,29,64.2
H01,2016,9,17,15,0.001,0.058,0.061,0.5,0.002,0.02,28.7,66
H01,2016,9,17,16,0.002,0.052,0.05,0.4,0.003,0.017,28.1,72
H01,2016,9,17,17,0.001,0.043,0.04,0.3,0.002,0.012,27.6,71.7
H01,2016,9,17,18,0.001,0.045,0.034,0.3,0.002,0.012,26.4,76.8
H01,2016,9,17,19,0,0.032,0.027,0.3,0.001,0.013,25.6,81
H01,2016,9,17,20,0.001,0.045,0.032,0.3,0.001,0.007,25.8,81.3
H01,2016,9,17,21,0.001,0.044,0.028,0.3,0,0.007,25.3,83.4
H01,2016,9,17,22,0,0.027,0.024,0.3,0.001,0.007,25.2,83.3
H01,2016,9,17,23,0,0.036,0.021,0.2,0.001,0.005,25.5,82.5
H01,2016,9,17,24,0,0.026,0.018,0.2,0,0.003,25.1,83.8
H01,2016,9,18,1,0,0.026,0.014,0.2,0,0.003,25.4,83
H01,2016,9,18,2,0.001,0.02,0.01,0.1,0.001,0.004,25.5,84.9
H01,2016,9,18,3,0.001,0.022,0.008,0.1,0,0.004,25.5,85.3
H01,2016,9,18,4,0.001,0.012,0.008,0.1,0.001,0.004,25.3,85.8
H01,2016,9,18,5,0.001,0.016,0.007,0.1,0.002,0.005,24.8,88.1
H01,2016,9,18,6,0,0.018,0.007,0.1,0.001,0.004,24.6,90.8
H01,2016,9,18,7,0,0.028,0.006,0.1,0.003,0.006,24.8,91.8
H01,2016,9,18,8,0,0.018,0.007,0.1,0.003,0.006,25,92.2
H01,2016,9,18,9,0,0.005,0.01,0.1,0.001,0.003,23.9,90.8
H01,2016,9,18,10,0,0.019,0.011,0.1,0.001,0.002,25.1,91.4
H01,2016,9,18,11,0,0.022,0.011,0.1,0.001,0.003,25,87.7
H01,2016,9,18,12,0.001,0.012,0.01,0.2,0.002,0.004,25,90.4
H01,2016,9,18,13,0,0.018,0.01,0.2,0.002,0.003,25.2,90.6
H01,2016,9,18,14,0,0.016,0.011,0.2,0.002,0.003,25.9,91.1
H01,2016,9,18,15,0,0.029,0.01,0.2,0.002,0.004,25.9,88.7
H01,2016,9,18,16,0.001,0.007,0.009,0.2,0.002,0.004,25.6,88.1
H01,2016,9,18,17,0,0.008,0.009,0.2,0.002,0.004,25.3,88.8
H01,2016,9,18,18,0.001,0.018,0.007,0.2,0.003,0.005,24.9,90.3
H01,2016,9,18,19,0.001,0.021,0.005,0.2,0.003,0.006,24.6,91.5
H01,2016,9,18,20,0,0.02,0.004,0.2,0.003,0.006,24.4,92.1
H01,2016,9,18,21,0,0.021,0.006,0.2,0.002,0.004,24.1,92.4
H01,2016,9,18,22,0,0.015,0.004,0.2,0.002,0.004,24,92.7
H01,2016,9,18,23,0,0.009,0.006,0.2,0.001,0.006,23.3,92.4
H01,2016,9,18,24,0,0.015,0.01,0.2,0.001,0.006,23,92.5
H01,2016,9,19,1,0,0.003,0.009,0.2,0.001,0.005,22.8,92.6
H01,2016,9,19,2,0,0.02,0.006,0.2,0.001,0.007,22.9,93
H01,2016,9,19,3,0,0.013,0.003,0.2,0.004,0.009,22.8,93.2
H01,2016,9,19,4,0,0.021,0.003,0.2,0.005,0.01,22.9,93.3
H01,2016,9,19,5,0,0.023,0.001,0.2,0.011,0.012,22.8,93.3
H01,2016,9,19,6,0,0.018,0.001,0.3,0.006,0.009,22.6,93.4
H01,2016,9,19,7,0,0.02,0.001,0.3,0.017,0.011,23.4,93.8
H01,2016,9,19,8,0.001,0.016,0.003,0.3,0.014,0.011,23.5,93.8
H01,2016,9,19,9,0.001,0.025,0.006,0.3,0.01,0.008,24.8,93.8
H01,2016,9,19,10,0,0.019,0.017,0.2,0.005,0.006,27.8,78
H01,2016,9,19,11,0.001,0.004,0.027,0.2,0.002,0.005,28.7,65.2
H01,2016,9,19,12,0.001,0.032,0.032,0.2,0.002,0.006,29.6,62.4
H01,2016,9,19,13,0.001,0.03,0.032,0.2,0.002,0.007,28.1,69.3
H01,2016,9,19,14,0,0.025,0.028,0.3,0.003,0.012,27.6,76.6
H01,2016,9,19,15,0.001,0.035,0.023,0.3,0.005,0.017,26.9,82.3
H01,2016,9,19,16,0,0.034,0.027,0.3,0.005,0.017,27.4,77.6
H01,2016,9,19,17,0.001,0.04,0.024,0.3,0.004,0.019,26.8,80.1
H01,2016,9,19,18,0.001,0.038,0.016,0.4,0.005,0.023,25.8,84.4
H01,2016,9,19,19,0.001,0.036,0.015,0.5,0.001,0.018,25.6,86.9
H01,2016,9,19,20,0.001,0.04,0.009,0.4,0.002,0.017,25,89.3
H01,2016,9,19,21,0,0.009,0.01,0.4,0.002,0.013,23.9,89.3
H01,2016,9,19,22,0,0.022,0.007,0.3,0.003,0.014,23.9,90.4
H01,2016,9,19,23,0,0.023,0.008,0.3,0.001,0.013,21.8,88.9
H01,2016,9,19,24,0.001,0.003,0.014,0.2,0,0.008,21.4,91.7
H01,2016,9,20,1,0,0.016,0.017,0.2,0.001,0.005,21,92.3
H01,2016,9,20,2,0,0.001,0.017,0.2,0,0.005,21.6,93
H01,2016,9,20,3,0,0.026,0.013,0.2,0.001,0.007,21.5,93.1
H01,2016,9,20,4,0.001,0.012,0.011,0.2,0.001,0.009,21.6,93.2
H01,2016,9,20,5,0,0.006,0.011,0.2,0.003,0.01,21.2,93.2
H01,2016,9,20,6,0,0.018,0.009,0.2,0.006,0.012,21.1,93.1
H01,2016,9,20,7,0,0.014,0.005,0.3,0.014,0.016,21.5,93.3
H01,2016,9,20,8,0.001,0.013,0.004,0.3,0.016,0.017,21.9,93.3
H01,2016,9,20,9,0.001,0.015,0.004,0.4,0.019,0.015,22.5,92.5
H01,2016,9,20,10,0.001,0.024,0.004,0.3,0.026,0.016,22.5,92.2
H01,2016,9,20,11,0,0.028,0.004,0.4,0.023,0.016,22.9,90.5
H01,2016,9,20,12,0,0.019,0.004,0.3,0.021,0.015,23.3,91.7
H01,2016,9,20,13,0,0.028,0.003,0.4,0.03,0.016,23.7,91.9
H01,2016,9,20,14,0,0.013,0.01,0.3,0.01,0.011,24.2,89.3
H01,2016,9,20,15,0,0.014,0.018,0.2,0.002,0.003,23.9,90.8
H01,2016,9,20,16,0,0.02,0.019,0.2,0.003,0.005,23.4,91.8
H01,2016,9,20,17,0,0.013,0.02,0.2,0.001,0.006,23.2,92.7
H01,2016,9,20,18,0,0.02,0.022,0.2,0.002,0.007,23.1,93.2
H01,2016,9,20,19,0,0.004,0.024,0.2,0.001,0.004,20.3,92.1
H01,2016,9,20,20,0,0.017,0.03,0.2,0.001,0.004,20.1,92.9
H01,2016,9,20,21,0,0.007,0.025,0.2,0,0.005,20.3,93.2
H01,2016,9,20,22,0.001,0.03,0.019,0.2,0.002,0.008,20.5,93.3
H01,2016,9,20,23,0,0.017,0.015,0.3,0.001,0.008,20.7,93.3
H01,2016,9,20,24,0,0.014,0.01,0.3,0.001,0.009,20.5,93.3
H01,2016,9,21,1,0,0.017,0.006,0.2,0.003,0.013,20.5,93.2
H01,2016,9,21,2,0,0.017,0.006,0.2,0.004,0.01,20.6,93.1
H01,2016,9,21,3,0,0.02,0.004,0.2,0.004,0.01,20.5,93
H01,2016,9,21,4,0,0.008,0.002,0.2,0.007,0.011,20.7,92.9
H01,2016,9,21,5,0,0.02,0.001,0.2,0.023,0.013,20.5,92.9
H01,2016,9,21,6,0,0.03,0.001,0.3,0.023,0.012,20.6,92.8
H01,2016,9,21,7,0,0.018,0.003,0.3,0.017,0.012,21.3,93.1
H01,2016,9,21,8,0.001,0.019,0.006,0.3,0.015,0.013,21.7,92.6
H01,2016,9,21,9,0.001,0.014,0.011,0.3,0.01,0.014,22.4,83
H01,2016,9,21,10,0.001,0.017,0.014,0.3,0.009,0.015,23.5,77.8
H01,2016,9,21,11,0.001,0.013,0.017,0.3,0.008,0.011,24.6,75.2
H01,2016,9,21,12,0.001,0.021,0.019,0.3,0.007,0.014,24.2,70.2
H01,2016,9,21,13,0.001,0.024,0.016,0.3,0.008,0.022,23.6,75.4
H01,2016,9,21,14,0.001,0.027,0.011,0.3,0.008,0.022,22.4,84
H01,2016,9,21,15,0.001,0.022,0.018,0.3,0.01,0.021,23.1,82
H01,2016,9,21,16,0.001,0.033,0.016,0.3,0.011,0.024,23.1,81.1
H01,2016,9,21,17,0.001,0.029,0.013,0.4,0.013,0.029,22.9,82
H01,2016,9,21,18,0.001,0.018,0.015,0.4,0.007,0.025,22.5,84.3
H01,2016,9,21,19,0.001,0.019,0.012,0.4,0.006,0.022,22.4,85.9
H01,2016,9,21,20,0.001,0.022,0.009,0.5,0.006,0.022,22.2,86.3
H01,2016,9,21,21,0.001,0.019,0.008,0.5,0.004,0.019,22,87.2
H01,2016,9,21,22,0.001,0.033,0.006,0.4,0.002,0.015,21.9,89.1
H01,2016,9,21,23,0.001,0.039,0.004,0.5,0.003,0.016,22,89.1
H01,2016,9,21,24,0.001,0.034,0.002,0.5,0.005,0.014,21.7,90.3
H01,2016,9,22,1,***,0.024,0.006,***,***,***,21.2,91
H01,2016,9,22,2,0.001,0.042,0.013,0.3,***,***,21.2,92.1
H01,2016,9,22,3,0.001,0.035,0.015,0.3,0.001,0.01,21.1,92.4
H01,2016,9,22,4,0.001,0.034,0.015,0.3,0.002,0.01,21.3,92.8
H01,2016,9,22,5,0.001,0.04,0.014,0.2,0.002,0.012,21.1,92.9
H01,2016,9,22,6,0.001,0.032,0.007,0.3,0.005,0.016,21.3,93.1
H01,2016,9,22,7,0.001,0.039,0.004,0.3,0.007,0.017,21.5,93.2
H01,2016,9,22,8,0.001,0.029,0.004,0.4,0.012,0.02,21.4,93.3
H01,2016,9,22,9,0.001,0.03,0.005,0.4,0.017,0.019,21.5,93.1
H01,2016,9,22,10,0.001,0.024,0.003,0.4,0.014,0.018,21.6,93.3
H01,2016,9,22,11,0.001,0.018,0.006,0.3,0.011,0.019,21.6,93.4
H01,2016,9,22,12,0.001,0.012,0.009,0.3,0.014,0.017,22.1,93.8
H01,2016,9,22,13,0,0.014,0.017,0.3,0.008,0.012,22.9,93.8
H01,2016,9,22,14,0,0.02,0.024,0.2,0.002,0.007,23.5,86.4
H01,2016,9,22,15,0,0.012,0.021,0.2,0.005,0.013,23.6,86.4
H01,2016,9,22,16,0.001,0.021,0.011,0.2,0.011,0.016,24,88.6
H01,2016,9,22,17,0.001,0.019,0.007,0.3,0.012,0.016,23.6,89.1
H01,2016,9,22,18,0.001,0.021,0.007,0.4,0.01,0.02,22.8,90.4
H01,2016,9,22,19,0,0.019,0.014,0.3,0.002,0.016,22.5,91.8
H01,2016,9,22,20,0,0.011,0.014,0.3,0.001,0.015,22.3,92.2
H01,2016,9,22,21,0,0.02,0.016,0.2,0.002,0.014,22.4,92.6
H01,2016,9,22,22,0,0.018,0.017,0.2,0.001,0.013,22.3,92.7
H01,2016,9,22,23,0,0.027,0.021,0.2,0.001,0.007,22.5,92.8
H01,2016,9,22,24,0,0.021,0.022,0.2,0.001,0.005,22.6,92.7
H01,2016,9,23,1,0,0.016,0.02,0.2,0.001,0.005,22.7,92.3
H01,2016,9,23,2,0,0.023,0.021,0.1,0,0.005,22.9,92.4
H01,2016,9,23,3,0,0.006,0.02,0.1,0.001,0.006,23,92.7
H01,2016,9,23,4,0,0.022,0.016,0.2,0.003,0.01,23,93
H01,2016,9,23,5,0,0.015,0.017,0.1,0.004,0.009,22.9,93
H01,2016,9,23,6,0.001,0.029,0.008,0.2,0.006,0.017,22.6,93.1
H01,2016,9,23,7,0.001,0.031,0.003,0.4,0.018,0.023,22.3,93
H01,2016,9,23,8,0.001,0.028,0.006,0.3,0.013,0.022,22,93
H01,2016,9,23,9,0.001,0.024,0.007,0.4,0.015,0.022,22.5,93.5
H01,2016,9,23,10,0.001,0.03,0.008,0.4,0.02,0.023,23.5,93.7
H01,2016,9,23,11,0.001,0.027,0.008,0.3,0.013,0.025,23.2,91.3
H01,2016,9,23,12,0.001,0.035,0.006,0.4,0.022,0.025,23.8,90.5
H01,2016,9,23,13,0.001,0.029,0.011,0.4,0.015,0.024,24.6,83.4
H01,2016,9,23,14,0.001,0.029,0.016,0.3,0.013,0.022,25,78.5
H01,2016,9,23,15,0.001,0.036,0.019,0.3,0.009,0.022,25.2,75.8
H01,2016,9,23,16,0.001,0.017,0.018,0.3,0.01,0.024,25.3,76.5
H01,2016,9,23,17,0.001,0.023,0.016,0.3,0.013,0.027,25.1,78.1
H01,2016,9,23,18,0.001,0.026,0.007,0.5,0.014,0.03,24.2,83
H01,2016,9,23,19,0.001,0.027,0.004,0.5,0.009,0.028,23.7,86.4
H01,2016,9,23,20,0.002,0.037,0.005,0.5,0.007,0.026,23.3,84.4
H01,2016,9,23,21,0.003,0.036,0.001,0.5,0.015,0.035,22.8,85.8
H01,2016,9,23,22,0.002,0.032,0.001,0.5,0.018,0.029,22.7,87.6
H01,2016,9,23,23,0.001,0.038,0.001,0.5,0.008,0.025,22.6,89
H01,2016,9,23,24,0.001,0.022,0.003,0.5,0.011,0.02,22.1,86.7
H01,2016,9,24,1,0.001,0.023,0.005,0.4,0.004,0.017,22,86.3
H01,2016,9,24,2,0.001,0.019,0.002,0.4,0.005,0.018,21.8,87.6
H01,2016,9,24,3,0.001,0.027,0.001,0.4,0.011,0.015,21.2,89.1
H01,2016,9,24,4,0.001,0.027,0.001,0.4,0.019,0.014,20.7,90.3
H01,2016,9,24,5,0.001,0.035,0,0.4,0.031,0.012,20.7,91.6
H01,2016,9,24,6,0.001,0.023,0,0.4,0.033,0.011,20.4,92
H01,2016,9,24,7,0.001,0.035,0.001,0.5,0.044,0.015,21.3,93
H01,2016,9,24,8,0.001,0.024,0.003,0.5,0.032,0.016,23.6,84
H01,2016,9,24,9,0.001,0.029,0.007,0.3,0.008,0.008,23.5,81.7
H01,2016,9,24,10,0.001,0.041,0.005,0.4,0.015,0.014,23.5,82.6
H01,2016,9,24,11,0.001,0.037,0.005,0.4,0.019,0.02,23.6,82.4
H01,2016,9,24,12,0.001,0.04,0.01,0.4,0.011,0.023,23.7,80
H01,2016,9,24,13,0.001,0.046,0.01,0.4,0.011,0.023,24.2,78.9
H01,2016,9,24,14,0.001,0.051,0.01,0.4,0.01,0.023,23.2,88.3
H01,2016,9,24,15,0.001,0.024,0.007,0.3,0.014,0.019,22.6,90.4
H01,2016,9,24,16,0,0.009,0.018,0.1,0.005,0.009,22.2,90.7
H01,2016,9,24,17,0.001,0.011,0.031,0.1,0.003,0.008,21.5,86.8
H01,2016,9,24,18,0,0.028,0.029,0.2,0.002,0.014,21.2,88.1
H01,2016,9,24,19,0,0.029,0.019,0.3,0.003,0.016,21.1,89.8